Regional Weather Roundup
Issued by NWS

Home | Current Version | Previous Version | Graphics & Text | Print | Product List | Glossary On
Versions: 1 2 3 4 5 6 7 8 9 10 11 12 13 14 15 16 17 18 19 20 21 22 23 24 25 26 27 28 29 30 31 32 33 34 35 36 37 38 39 40 41 42 43 44 45 46 47 48 49 50
000
ASUS45 KCYS 300210
RWRWY

WYOMING REGIONAL WEATHER ROUNDUP
NATIONAL WEATHER SERVICE CHEYENNE WY
800 PM MDT WED JUL 29 2015

NOTE:  "FAIR" INDICATES FEW OR NO CLOUDS BELOW 12,000 FEET
WITH NO SIGNIFICANT WEATHER AND/OR OBSTRUCTIONS TO VISIBILITY.

WYZ001-300300-
YELLOWSTONE NATIONAL PARK

CITY           SKY/WX    TMP DP  RH WIND       PRES   REMARKS
LK YELLOWSTONE   N/A     63  33  32 W5        30.47S
W YELLOWSTONE  NOT AVBL

$$
WYZ002>013-054>058-071-098>099-300300-
NORTHERN WYOMING

CITY           SKY/WX    TMP DP  RH WIND       PRES   REMARKS
JACKSON        CLEAR     72  36  26 SW6       30.37R
CODY           FAIR      75  28  17 E7        30.25S
GREYBULL       FAIR      80  29  15 S6        30.17S
WORLAND        FAIR      79  30  16 NE6       30.18S
SHERIDAN       FAIR      77  44  30 NW3       30.20S
BUFFALO        FAIR      73  38  27 NW10      30.26R
GILLETTE       FAIR      76  36  23 NE6       30.21S
HULETT         FAIR      73  34  23 W3        30.23S
NEWCASTLE      FAIR      72  36  26 SE6       30.22S

$$
WYZ014>020-022>026-101>103-300300-
CENTRAL WYOMING

CITY           SKY/WX    TMP DP  RH WIND       PRES   REMARKS
BIG PINEY      FAIR      73  22  14 N15       30.39R
PINEDALE       FAIR      70  30  23 NW9       30.40R
DUBOIS         FAIR      68  28  22 N10       30.38R
LANDER         FAIR      76  28  17 NE5       30.24R
RIVERTON       FAIR      77  26  15 E6        30.25S
CASPER         FAIR      75  22  13 N7        30.25R
DOUGLAS        FAIR      77  30  17 SW3       30.25R

$$
WYZ021-027>030-104>119-300300-
SOUTHERN WYOMING

CITY           SKY/WX    TMP DP  RH WIND       PRES   REMARKS
EVANSTON       FAIR      72  17  12 W15       30.40R
KEMMERER       FAIR      72  27  18 NW10      30.41R
FORT BRIDGER   CLEAR     77  12   8 W14       30.41R
ROCK SPRINGS   FAIR      73  12   9 W7        30.36R
DIXON          FAIR      78  25  14 CALM      30.36R
RAWLINS        FAIR      75  13   9 W6        30.36R
SARATOGA       FAIR      72  21  15 NW3       30.37S
LARAMIE        FAIR      71  26  18 N7        30.38R
CHEYENNE       FAIR      73  50  44 S13G20    30.31R
TORRINGTON     FAIR      78  48  34 E7        30.19R
PINE BLUFFS    FAIR      73  46  38 S13       30.27R

$$



USA.gov is the U.S. government's official web portal to all federal, state and local government web resources and services.